False Pass, AK

4:54 PM HDT on April 28, 2017 (GMT -0900)
False Pass

Weather History for PAKF - September, 2012

Change the Weather History Date:

Tuesday, September 11, 2012

  Actual Average (PACD) Record (PACD)
Temperature  
Mean Temperature 48 °F -  
Max Temperature 48 °F 52 °F 61 °F (2016)
Min Temperature 46 °F 43 °F 32 °F (1968)
Degree Days  
Heating Degree Days 17    
Moisture  
Dew Point 43 °F    
Average Humidity 82    
Maximum Humidity 93    
Minimum Humidity 64    
Precipitation  
Precipitation 0.02 in - - ()
Sea Level Pressure  
Sea Level Pressure 29.79 in    
Wind  
Wind Speed 7 mph (North)    
Max Wind Speed 26 mph    
Max Gust Speed 37 mph    
Visibility 10 miles    
Events Rain    
Averages and records for this station are not official NWS values.
T = Trace of Precipitation, MM = Missing Value Source: NWS Daily Summary

Daily Weather History Graph

Daily Weather History Graph

Search for Another Location

Airport or City:

Trip Planner

Search our weather history database for the weather conditions in past years. The results will help you decide how hot, cold, wet, or windy it might be!

Date:

Astronomy

Sep. 11, 2012 Rise Set
Actual Time 7:20 AM HDT 8:18 PM HDT
Civil Twilight 6:43 AM HDT 8:55 PM HDT
Nautical Twilight 5:58 AM HDT 9:39 PM HDT
Astronomical Twilight 5:09 AM HDT 10:28 PM HDT
Moon 2:13 AM HDT (9/11) 6:06 PM HDT (9/11)
Length of Visible Light 14h 11m
Length of Day
12h 58m
Waning Crescent, 20% of the Moon is Illuminated
Sep 11
Waning Crescent
Sep 15
New
Sep 22
First Quarter
Sep 29
Full
Oct 7
Last Quarter

Hourly Weather History & Observations

Time (HDT) Temp. Windchill Dew Point Humidity Pressure Visibility Wind Dir Wind Speed Gust Speed Precip Events Conditions
12:01 AM 50.0 °F - 45.0 °F 83% 29.90 in 10.0 mi WNW 3.5 mph - N/A   Overcast
1:01 AM 48.9 °F - 46.0 °F 90% 29.89 in 10.0 mi East 12.7 mph 16.1 mph N/A   Overcast
2:01 AM 48.9 °F - 45.0 °F 86% 29.89 in 10.0 mi Variable 5.8 mph - 0.00 in   Overcast
3:01 AM 48.0 °F - 45.0 °F 89% 29.89 in 10.0 mi SSW 4.6 mph - N/A   Overcast
3:10 AM 48.2 °F - 46.4 °F 93% 29.61 in 10.0 mi WSW 5.8 mph - N/A   Overcast
3:53 AM 48.2 °F - 44.6 °F 87% 29.61 in 10.0 mi NNE 4.6 mph - 0.00 in Rain Light Rain
4:01 AM 48.0 °F - 44.1 °F 86% 29.89 in 10.0 mi NE 5.8 mph - 0.00 in   Overcast
4:19 AM 46.4 °F 45.2 °F 44.6 °F 93% 29.61 in 10.0 mi SE 3.5 mph - 0.00 in Rain Light Rain
5:01 AM 46.9 °F - 44.1 °F 90% 29.89 in 10.0 mi NE 4.6 mph - 0.00 in   Overcast
5:28 AM 46.4 °F 44.3 °F 44.6 °F 93% 29.62 in 10.0 mi ESE 4.6 mph - N/A   Overcast
6:01 AM 46.0 °F - 44.1 °F 93% 29.89 in 10.0 mi Calm Calm - 0.00 in   Overcast
7:01 AM 46.0 °F - 42.1 °F 86% 29.90 in 10.0 mi Calm Calm - 0.01 in Rain Light Rain
8:01 AM 46.0 °F 41.9 °F 44.1 °F 93% 29.90 in 10.0 mi East 8.1 mph - 0.00 in   Overcast
9:01 AM 46.9 °F - 45.0 °F 93% 29.91 in 10.0 mi East 6.9 mph - N/A   Overcast
9:20 AM 46.4 °F 42.4 °F 44.6 °F 93% 29.63 in 10.0 mi East 8.1 mph - N/A   Overcast
10:01 AM 48.2 °F - 44.6 °F 87% 29.64 in 10.0 mi East 6.9 mph - N/A   Mostly Cloudy
10:12 AM 48.2 °F - 44.6 °F 87% 29.64 in 10.0 mi East 6.9 mph - N/A   Mostly Cloudy
10:24 AM 48.2 °F - 44.6 °F 87% 29.64 in 10.0 mi East 6.9 mph - N/A   Overcast
10:39 AM 48.2 °F - 44.6 °F 87% 29.65 in 10.0 mi East 5.8 mph - N/A   Overcast
11:01 AM 48.2 °F - 42.8 °F 82% 29.65 in 9.0 mi East 4.6 mph - N/A   Overcast
11:17 AM 48.2 °F - 44.6 °F 87% 29.65 in 9.0 mi North 3.5 mph - N/A   Overcast
12:01 PM 48.0 °F - 44.1 °F 86% 29.93 in 6.0 mi Calm Calm - 0.00 in Rain Light Rain
12:29 PM 48.2 °F - 44.6 °F 87% 29.65 in 10.0 mi Calm Calm - 0.00 in   Overcast
1:01 PM 50.0 °F - 44.1 °F 80% 29.93 in 10.0 mi North 6.9 mph - 0.00 in   Overcast
1:58 PM 48.2 °F - 44.6 °F 87% 29.66 in 10.0 mi North 9.2 mph - 0.00 in   Overcast
2:01 PM 48.9 °F - 45.0 °F 86% 29.94 in 10.0 mi North 6.9 mph - 0.00 in Rain Light Rain
2:46 PM 48.2 °F - 44.6 °F 87% 29.66 in 10.0 mi North 11.5 mph - 0.01 in   Overcast
2:54 PM 48.2 °F - 44.6 °F 87% 29.66 in 10.0 mi North 11.5 mph - 0.01 in Rain Light Rain
3:01 PM 48.2 °F - 44.6 °F 87% 29.66 in 10.0 mi North 10.4 mph - 0.01 in Rain Light Rain
3:15 PM 48.0 °F - 44.1 °F 86% 29.94 in 10.0 mi NNW 11.5 mph - 0.01 in Rain Light Rain
4:01 PM 50.0 °F - 41.0 °F 71% 29.94 in 10.0 mi NW 15.0 mph 19.6 mph 0.00 in   Overcast
5:01 PM 50.0 °F - 41.0 °F 71% 29.67 in 10.0 mi NNW 15.0 mph 19.6 mph N/A   Overcast
5:07 PM 50.0 °F - 41.0 °F 71% 29.96 in 10.0 mi NW 12.7 mph 23.0 mph N/A   Overcast
5:20 PM 48.2 °F - 41.0 °F 76% 29.67 in 10.0 mi NNW 16.1 mph 21.9 mph N/A   Overcast
5:39 PM 50.0 °F - 41.0 °F 71% 29.68 in 10.0 mi WNW 8.1 mph 27.6 mph N/A   Overcast
5:57 PM 50.0 °F - 41.0 °F 71% 29.68 in 10.0 mi NNW 9.2 mph - N/A   Overcast
6:01 PM 50.0 °F - 41.0 °F 71% 29.96 in 10.0 mi Variable 5.8 mph - N/A   Overcast
7:01 PM 48.2 °F - 39.2 °F 71% 29.69 in 10.0 mi West 11.5 mph 18.4 mph N/A   Mostly Cloudy
7:07 PM 48.9 °F - 39.0 °F 69% 29.97 in 10.0 mi West 11.5 mph 20.7 mph N/A   Mostly Cloudy
8:01 PM 48.9 °F - 39.0 °F 69% 29.98 in 10.0 mi WSW 17.3 mph 28.8 mph N/A   Partly Cloudy
9:01 PM 48.0 °F - 39.9 °F 74% 30.00 in 10.0 mi West 19.6 mph 27.6 mph 0.00 in   Scattered Clouds
9:13 PM 48.2 °F - 39.2 °F 71% 29.72 in 10.0 mi West 16.1 mph 32.2 mph 0.00 in Rain Light Rain
9:54 PM 48.2 °F - 37.4 °F 66% 29.73 in 10.0 mi West 26.5 mph 36.8 mph 0.00 in   Overcast
10:01 PM 48.0 °F - 37.9 °F 68% 30.01 in 10.0 mi WSW 21.9 mph 35.7 mph 0.00 in   Overcast
11:01 PM 48.9 °F - 37.0 °F 64% 30.04 in 10.0 mi WSW 19.6 mph 28.8 mph N/A   Overcast